Regional Weather Roundup
Issued by NWS Newport/Morehead, NC

Current Version | Previous Version | Graphics & Text | Print | Product List | Glossary Off
Versions: 1 2 3 4 5 6 7 8 9 10 11 12 13 14 15 16 17 18 19 20 21 22 23 24 25 26 27 28 29 30 31 32 33 34 35 36 37 38 39 40 41 42 43 44 45 46 47 48 49 50

000
ASUS42 KMHX 311513
RWRMHX
WEATHER ROUNDUP FOR EASTERN NORTH CAROLINA
NATIONAL WEATHER SERVICE NEWPORT/MOREHEAD CITY NC
1100 AM EDT FRI JUL 31 2015

NOTE: "FAIR" INDICATES FEW OR NO CLOUDS BELOW 12,000 FEET
WITH NO SIGNIFICANT WEATHER AND/OR OBSTRUCTIONS TO VISIBILITY

NCZ015>017-031-032-045>047-102-103-311600-
NORTH COAST

CITY           SKY/WX    TMP DP  RH WIND       PRES   REMARKS
EDENTON          N/A     83  71  66 NE7G17    29.92S
ELIZABETH CITY PTSUNNY   83  74  74 N14       29.91F
KITTY HAWK     MOSUNNY   86  73  66 NE6       29.89S
MANTEO         PTSUNNY   83  76  79 NE12      29.90S

$$

NCZ045>047-081-094-103-104-311600-
CENTRAL COAST

CITY           SKY/WX    TMP DP  RH WIND       PRES   REMARKS
FRISCO         MOSUNNY   86  76  71 NE10      29.87F
SWANQUARTER      N/A     88 N/A N/A NW6G12    29.85S

$$

NCZ095-097-098-100-101-311600-
SOUTHERN COAST

CITY           SKY/WX    TMP DP  RH WIND       PRES   REMARKS
BEAUFORT       MOSUNNY   86  77  74 N5        29.89S
CEDAR ISLAND     N/A     84 N/A N/A NW6       29.91S
JACKSONVILLE   PTSUNNY   84  75  74 N7        29.90S
PINEY ISLAND   MOSUNNY  N/A N/A N/A MISG      29.89R
WILMINGTON     PTSUNNY   87  76  69 N9        29.91R


$$

NCZ011>013-027>030-043-044-078>080-089-090>093-098-311600-
COASTAL PLAIN

CITY           SKY/WX    TMP DP  RH WIND       PRES   REMARKS
AHOSKIE        SUNNY     82  69  64 N8        29.94F
CLINTON        SUNNY     87  71  58 N7        29.94S
ELIZABETHTOWN  MOSUNNY   87  69  56 N5        29.93R
GOLDSBORO      SUNNY     86  70  59 NE14      29.92S
GREENVILLE     PTSUNNY   84  72  65 N13       29.95S
HAVELOCK       PTSUNNY   85  77  77 N10       29.90S
KENANSVILLE    SUNNY    N/A N/A N/A N12       29.94R
KINSTON        SUNNY     84  72  65 N13       29.93F
NEW BERN       PTSUNNY   85  75  72 N7        29.91S
RICHLANDS      PTSUNNY   84  73  70 NE8       29.91S
ROCKY MOUNT    SUNNY     87  67  51 N14       29.95S
WASHINGTON     SUNNY     82  73  76 NE12      29.92F
WHITEVILLE     PTSUNNY   83  73  70 N5        29.93R

$$

AMZ130-135-150-152-154-156-158-170-250-252-270-ANZ085-086-088-633-658-670-311600-
MARINE OBSERVATIONS

STATION/POSITION TIME  TEMP    WIND        PRES    WAVE   SWELL
                       AIR SEA DIR/SP/G            HT/PER HT/PER
                 (UTC) (F)     (DEG/KT/KT) (MB)    (FT/S) (FT/S)
CHESAPEAKE LIGHT 1500   81      20/ 21/ 22 1013.3
64 E VA BEACH    1450   80 81  360/ 14/ 17 1011.6    4/ 9   3/ 9
DUCK             1400   76 62   30/ 15/ 16 1011.7
2 E DUCK         1411      73                N/A     3/ 9
OREGON INLET     1400   81 83   10/  8/  8 1012.0
13E OREGON INLT  1500      81                N/A     3/ 9   2/11
HATTERAS CG      1400   81 82  340/ 11/ 12 1011.5
DIAMOND BUOY     1450   82 86  360/ 12/ 14 1011.6    4/ 9   3/ 9
CAPE LOOKOUT     1500   85     330/  3/  4 1012.1
BEAUFORT LAB     1400   84 82  350/  8/ 12 1011.3
30 SE NEW RVR IN NOT AVBL
27 SE WRIGHTSVLE 1400   79 82  340/  6/  8   N/A
5 SE WRIGHTSVLE  1408   81 83  360/  6/  8 1012.3
225 S CAPE HAT   1450   79 81  270/ 16/ 21 1015.7    9/ 8   5/ 8
41 SE CHARLESTON 1450   79 84  280/  8/ 10 1013.7    3/ 5   3/ 5

$$


USA.gov is the U.S. government's official web portal to all federal, state and local government web resources and services.